• In Austria
  • List of Countries
  • For 7 days
  • Water Temperature
  • Satellite Maps
  • Weather Map
  • News
  • Weather Widgets
  • user-avatar
    Login

    Hourly Weather Melbourne

    Today, 12 December, Tuesday

    Time Temperature Precipitation Wind Pressure Humidity
    00:00 +14°C° 0 mm 2 mps 763 mmHg 93%
    01:00 +14°C° 0 mm 1 mps 763 mmHg 94%
    02:00 +14°C° 0 mm 1 mps 763 mmHg 94%
    03:00 +13°C° 0 mm 1 mps 762 mmHg 95%
    04:00 +13°C° 0 mm 1 mps 762 mmHg 95%
    05:00 +14°C° 0 mm 1 mps 762 mmHg 91%
    06:00 +15°C° 0 mm 1 mps 762 mmHg 86%
    07:00 +16°C° 0 mm 1 mps 762 mmHg 82%
    08:00 +20°C° 0 mm 1 mps 762 mmHg 70%
    09:00 +23°C° 0 mm 1 mps 762 mmHg 58%
    10:00 +25°C° 0 mm 1 mps 761 mmHg 46%
    11:00 +27°C° 0 mm 1 mps 761 mmHg 42%
    12:00 +28°C° 0 mm 2 mps 761 mmHg 37%
    13:00 +30°C° 0 mm 2 mps 760 mmHg 32%
    14:00 +30°C° 0 mm 2 mps 760 mmHg 33%
    15:00 +30°C° 0 mm 2 mps 759 mmHg 34%
    16:00 +28°C° 0 mm 3 mps 759 mmHg 39%
    17:00 +27°C° 0 mm 3 mps 759 mmHg 47%
    18:00 +25°C° 0 mm 3 mps 759 mmHg 55%
    19:00 +23°C° 0 mm 2 mps 759 mmHg 63%
    20:00 +20°C° 0 mm 2 mps 759 mmHg 68%
    21:00 +20°C° 0 mm 1 mps 759 mmHg 74%
    22:00 +18°C° 0 mm 1 mps 758 mmHg 82%
    23:00 +18°C° 0 mm 1 mps 758 mmHg 81%

    Tomorrow, 13 December, Wednesday

    Time Temperature Precipitation Wind Pressure Humidity
    00:00 +18°C° 0 mm 1 mps 758 mmHg 81%
    01:00 +18°C° 0 mm 1 mps 758 mmHg 80%
    02:00 +18°C° 0 mm 1 mps 757 mmHg 76%
    03:00 +18°C° 0 mm 2 mps 757 mmHg 72%
    04:00 +18°C° 0 mm 2 mps 756 mmHg 68%
    05:00 +20°C° 0 mm 2 mps 756 mmHg 61%
    06:00 +22°C° 0 mm 3 mps 756 mmHg 54%
    07:00 +24°C° 0 mm 3 mps 756 mmHg 47%
    08:00 +27°C° 0 mm 4 mps 756 mmHg 41%
    09:00 +30°C° 0 mm 4 mps 756 mmHg 34%
    10:00 +34°C° 0 mm 5 mps 755 mmHg 27%
    11:00 +35°C° 0 mm 5 mps 755 mmHg 25%
    12:00 +36°C° 0 mm 5 mps 754 mmHg 22%
    13:00 +39°C° 0 mm 5 mps 754 mmHg 19%
    14:00 +38°C° 0 mm 4 mps 753 mmHg 19%
    15:00 +38°C° 0 mm 4 mps 752 mmHg 18%
    16:00 +40°C° 0 mm 4 mps 751 mmHg 17%
    17:00 +37°C° 0 mm 4 mps 751 mmHg 21%
    18:00 +35°C° 0 mm 4 mps 751 mmHg 25%
    19:00 +32°C° 0 mm 4 mps 751 mmHg 30%
    20:00 +30°C° 0 mm 4 mps 751 mmHg 29%
    21:00 +29°C° 0 mm 4 mps 751 mmHg 28%
    22:00 +29°C° 0 mm 3 mps 750 mmHg 27%
    23:00 +27°C° 0 mm 3 mps 750 mmHg 32%

    Day after tomorrow, 14 December, Thursday

    Time Temperature Precipitation Wind Pressure Humidity
    00:00 +26°C° 0 mm 3 mps 750 mmHg 36%
    01:00 +25°C° 0 mm 2 mps 750 mmHg 40%
    02:00 +25°C° 0 mm 2 mps 750 mmHg 41%
    03:00 +25°C° 0 mm 2 mps 750 mmHg 42%
    04:00 +24°C° 0 mm 1 mps 750 mmHg 43%
    05:00 +25°C° 0 mm 2 mps 750 mmHg 46%
    06:00 +25°C° 0 mm 3 mps 751 mmHg 48%
    07:00 +25°C° 0 mm 3 mps 751 mmHg 51%
    08:00 +26°C° 0 mm 4 mps 752 mmHg 52%
    09:00 +26°C° 0 mm 4 mps 752 mmHg 53%
    10:00 +27°C° 0 mm 4 mps 753 mmHg 55%
    11:00 +27°C° 0 mm 4 mps 753 mmHg 55%
    12:00 +27°C° 0 mm 4 mps 754 mmHg 56%
    13:00 +27°C° 0 mm 4 mps 754 mmHg 56%
    14:00 +26°C° 0 mm 4 mps 754 mmHg 54%
    15:00 +26°C° 0 mm 4 mps 754 mmHg 53%
    16:00 +26°C° 0 mm 4 mps 754 mmHg 51%
    17:00 +23°C° 0 mm 4 mps 755 mmHg 55%
    18:00 +22°C° 0 mm 4 mps 755 mmHg 59%
    19:00 +20°C° 0 mm 4 mps 756 mmHg 63%
    20:00 +19°C° 0 mm 4 mps 757 mmHg 67%
    21:00 +17°C° 0 mm 3 mps 757 mmHg 71%
    22:00 +16°C° 0 mm 3 mps 758 mmHg 76%
    23:00 +15°C° 0 mm 2 mps 758 mmHg 78%

    15 December, Friday

    Time Temperature Precipitation Wind Pressure Humidity
    00:00 +15°C° 0 mm 2 mps 758 mmHg 79%
    01:00 +14°C° 0 mm 1 mps 758 mmHg 81%
    02:00 +14°C° 0 mm 1 mps 758 mmHg 83%
    03:00 +13°C° 0 mm 1 mps 758 mmHg 85%
    04:00 +13°C° 0 mm 1 mps 758 mmHg 86%
    05:00 +14°C° 0 mm 1 mps 758 mmHg 81%
    06:00 +15°C° 0 mm 1 mps 758 mmHg 75%
    07:00 +18°C° 0 mm 1 mps 758 mmHg 69%
    08:00 +20°C° 0 mm 1 mps 758 mmHg 60%
    09:00 +22°C° 0 mm 1 mps 758 mmHg 51%
    10:00 +25°C° 0 mm 1 mps 758 mmHg 43%
    11:00 +26°C° 0 mm 1 mps 757 mmHg 38%
    12:00 +28°C° 0 mm 2 mps 757 mmHg 34%
    13:00 +29°C° 0 mm 2 mps 757 mmHg 30%
    14:00 +30°C° 0 mm 2 mps 756 mmHg 29%
    15:00 +30°C° 0 mm 2 mps 756 mmHg 29%
    16:00 +30°C° 0 mm 3 mps 755 mmHg 28%
    17:00 +28°C° 0 mm 3 mps 756 mmHg 37%
    18:00 +25°C° 0 mm 3 mps 756 mmHg 46%
    19:00 +22°C° 0 mm 4 mps 757 mmHg 54%
    20:00 +20°C° 0 mm 3 mps 757 mmHg 63%
    21:00 +19°C° 0 mm 3 mps 758 mmHg 72%
    22:00 +17°C° 0 mm 2 mps 758 mmHg 81%
    23:00 +16°C° 0 mm 2 mps 758 mmHg 84%

    16 December, Saturday

    Time Temperature Precipitation Wind Pressure Humidity
    00:00 +16°C° 0 mm 2 mps 758 mmHg 87%
    01:00 +15°C° 0 mm 2 mps 758 mmHg 90%
    02:00 +15°C° 0 mm 1 mps 758 mmHg 92%
    03:00 +14°C° 0 mm 1 mps 758 mmHg 93%
    04:00 +14°C° 0 mm 1 mps 758 mmHg 94%
    05:00 +16°C° 0 mm 1 mps 759 mmHg 87%
    06:00 +18°C° 0 mm 1 mps 759 mmHg 81%
    07:00 +19°C° 0 mm 1 mps 759 mmHg 74%
    08:00 +22°C° 0 mm 1 mps 759 mmHg 65%
    09:00 +24°C° 0 mm 1 mps 759 mmHg 56%
    10:00 +26°C° 0 mm 1 mps 760 mmHg 46%
    11:00 +28°C° 0 mm 2 mps 759 mmHg 43%
    12:00 +29°C° 0 mm 2 mps 759 mmHg 40%
    13:00 +30°C° 0 mm 2 mps 759 mmHg 36%
    14:00 +29°C° 0 mm 3 mps 759 mmHg 38%
    15:00 +29°C° 0 mm 4 mps 758 mmHg 40%
    16:00 +28°C° 0 mm 4 mps 758 mmHg 42%
    17:00 +26°C° 0 mm 4 mps 759 mmHg 49%
    18:00 +23°C° 0 mm 4 mps 759 mmHg 57%
    19:00 +21°C° 0 mm 4 mps 759 mmHg 64%
    20:00 +20°C° 0 mm 3 mps 760 mmHg 69%
    21:00 +19°C° 0 mm 3 mps 760 mmHg 73%
    22:00 +18°C° 0 mm 3 mps 761 mmHg 78%
    23:00 +17°C° 0 mm 2 mps 760 mmHg 81%

    17 December, Sunday

    Time Temperature Precipitation Wind Pressure Humidity
    00:00 +17°C° 0 mm 2 mps 760 mmHg 85%
    01:00 +16°C° 0 mm 2 mps 760 mmHg 88%
    02:00 +16°C° 0 mm 2 mps 760 mmHg 89%
    03:00 +16°C° 0 mm 2 mps 759 mmHg 90%
    04:00 +16°C° 0 mm 2 mps 759 mmHg 92%
    05:00 +17°C° 0 mm 2 mps 759 mmHg 86%
    06:00 +18°C° 0 mm 2 mps 760 mmHg 80%
    07:00 +19°C° 0 mm 2 mps 760 mmHg 74%
    08:00 +21°C° 0 mm 2 mps 760 mmHg 66%
    09:00 +25°C° 0 mm 2 mps 760 mmHg 57%
    10:00 +27°C° 0 mm 2 mps 760 mmHg 49%
    11:00 +29°C° 0 mm 3 mps 759 mmHg 45%
    12:00 +30°C° 0 mm 3 mps 759 mmHg 41%
    13:00 +31°C° 0 mm 3 mps 758 mmHg 37%
    14:00 +31°C° 0 mm 3 mps 758 mmHg 39%
    15:00 +31°C° 0 mm 3 mps 757 mmHg 40%
    16:00 +32°C° 0 mm 4 mps 757 mmHg 41%
    17:00 +29°C° 0 mm 4 mps 757 mmHg 48%
    18:00 +27°C° 0 mm 3 mps 758 mmHg 55%
    19:00 +25°C° 0 mm 3 mps 758 mmHg 62%
    20:00 +24°C° 0 mm 3 mps 758 mmHg 68%
    21:00 +23°C° 0 mm 2 mps 758 mmHg 74%
    22:00 +20°C° 0 mm 2 mps 758 mmHg 81%
    23:00 +21°C° 0 mm 1 mps 758 mmHg 83%
    Show more